TimeEST,TemperatureF,Dew PointF,Humidity,Sea Level PressureIn,VisibilityMPH,Wind Direction,Wind SpeedMPH,Gust SpeedMPH,PrecipitationIn,Events,Conditions,WindDirDegrees,DateUTC
12:21 AM,23.0,17.6,80,30.17,10.0,Calm,Calm,-,N/A,,Clear,0,2008-01-28 05:21:00
1:05 AM,24.8,17.6,74,30.15,10.0,Calm,Calm,-,N/A,,Clear,0,2008-01-28 06:05:00
1:21 AM,23.0,17.6,80,30.15,10.0,Calm,Calm,-,N/A,,Clear,0,2008-01-28 06:21:00
1:44 AM,21.2,17.6,86,30.15,10.0,Calm,Calm,-,N/A,,Clear,0,2008-01-28 06:44:00
2:05 AM,23.0,17.6,80,30.16,10.0,Calm,Calm,-,N/A,,Clear,0,2008-01-28 07:05:00
3:23 AM,21.2,17.6,86,30.18,10.0,Calm,Calm,-,N/A,,Clear,0,2008-01-28 08:23:00
3:43 AM,19.4,15.8,86,30.18,10.0,Calm,Calm,-,N/A,,Clear,0,2008-01-28 08:43:00
4:25 AM,19.4,15.8,86,30.19,10.0,Calm,Calm,-,N/A,,Clear,0,2008-01-28 09:25:00
4:44 AM,19.4,15.8,86,30.19,10.0,Calm,Calm,-,N/A,,Clear,0,2008-01-28 09:44:00
5:03 AM,19.4,15.8,86,30.19,10.0,Calm,Calm,-,N/A,,Clear,0,2008-01-28 10:03:00
5:25 AM,19.4,15.8,86,30.20,10.0,Calm,Calm,-,N/A,,Clear,0,2008-01-28 10:25:00
5:43 AM,19.4,15.8,86,30.20,10.0,Calm,Calm,-,N/A,,Clear,0,2008-01-28 10:43:00
6:04 AM,19.4,15.8,86,30.21,10.0,Calm,Calm,-,N/A,,Clear,0,2008-01-28 11:04:00
6:21 AM,17.6,14.0,86,30.21,10.0,Calm,Calm,-,N/A,,Clear,0,2008-01-28 11:21:00
6:41 AM,19.4,15.8,86,30.22,10.0,Calm,Calm,-,N/A,,Clear,0,2008-01-28 11:41:00
7:02 AM,17.6,14.0,86,30.22,10.0,Calm,Calm,-,N/A,,Clear,0,2008-01-28 12:02:00
7:21 AM,19.4,14.0,80,30.23,10.0,Calm,Calm,-,N/A,,Clear,0,2008-01-28 12:21:00
7:41 AM,17.6,14.0,86,30.24,10.0,Calm,Calm,-,N/A,,Clear,0,2008-01-28 12:41:00
8:01 AM,17.6,14.0,86,30.25,10.0,Calm,Calm,-,N/A,,Clear,0,2008-01-28 13:01:00
8:21 AM,19.4,15.8,86,30.25,10.0,Calm,Calm,-,N/A,,Clear,0,2008-01-28 13:21:00
8:42 AM,21.2,17.6,86,30.26,10.0,Calm,Calm,-,N/A,,Clear,0,2008-01-28 13:42:00
9:01 AM,24.8,19.4,80,30.26,10.0,Calm,Calm,-,N/A,,Clear,0,2008-01-28 14:01:00
9:23 AM,26.6,21.2,80,30.25,10.0,Calm,Calm,-,N/A,,Clear,0,2008-01-28 14:23:00
10:22 AM,37.4,17.6,45,30.25,10.0,Calm,Calm,-,N/A,,Clear,0,2008-01-28 15:22:00
10:41 AM,41.0,21.2,45,30.24,10.0,Calm,Calm,-,N/A,,Clear,0,2008-01-28 15:41:00
11:03 AM,42.8,19.4,39,30.23,10.0,Calm,Calm,-,N/A,,Clear,0,2008-01-28 16:03:00
11:22 AM,44.6,17.6,34,30.21,10.0,Calm,Calm,-,N/A,,Clear,0,2008-01-28 16:22:00
11:45 AM,46.4,14.0,27,30.21,10.0,Calm,Calm,-,N/A,,Clear,0,2008-01-28 16:45:00
12:02 PM,48.2,8.6,20,30.20,10.0,Calm,Calm,-,N/A,,Clear,0,2008-01-28 17:02:00
12:46 PM,53.6,10.4,18,30.15,10.0,Calm,Calm,-,N/A,,Clear,0,2008-01-28 17:46:00
1:03 PM,53.6,6.8,15,30.14,10.0,Calm,Calm,-,N/A,,Clear,0,2008-01-28 18:03:00
1:23 PM,55.4,3.2,12,30.12,10.0,Calm,Calm,-,N/A,,Clear,0,2008-01-28 18:23:00
1:42 PM,55.4,3.2,12,30.11,10.0,Calm,Calm,-,N/A,,Clear,0,2008-01-28 18:42:00
2:42 PM,60.8,-7.6,6,30.08,10.0,Calm,Calm,-,N/A,,Clear,0,2008-01-28 19:42:00
3:03 PM,60.8,-4.0,7,30.08,10.0,Calm,Calm,-,N/A,,Clear,0,2008-01-28 20:03:00
3:43 PM,60.8,-0.4,8,30.06,10.0,Calm,Calm,-,N/A,,Clear,0,2008-01-28 20:43:00
4:03 PM,60.8,1.4,9,30.06,10.0,Calm,Calm,-,N/A,,Clear,0,2008-01-28 21:03:00
4:22 PM,59.0,15.8,19,30.07,10.0,Calm,Calm,-,N/A,,Clear,0,2008-01-28 21:22:00
4:41 PM,55.4,23.0,29,30.08,10.0,Calm,Calm,-,N/A,,Clear,0,2008-01-28 21:41:00
5:01 PM,53.6,23.0,30,30.09,10.0,Calm,Calm,-,N/A,,Clear,0,2008-01-28 22:01:00
5:22 PM,51.8,28.4,41,30.10,10.0,Calm,Calm,-,N/A,,Clear,0,2008-01-28 22:22:00
5:42 PM,48.2,30.2,50,30.09,10.0,Calm,Calm,-,N/A,,Clear,0,2008-01-28 22:42:00
6:01 PM,48.2,28.4,46,30.08,10.0,Calm,Calm,-,N/A,,Clear,0,2008-01-28 23:01:00
6:21 PM,46.4,28.4,50,30.08,10.0,Calm,Calm,-,N/A,,Mostly Cloudy,0,2008-01-28 23:21:00
6:43 PM,46.4,30.2,53,30.07,10.0,Calm,Calm,-,N/A,,Mostly Cloudy,0,2008-01-28 23:43:00
7:01 PM,46.4,28.4,50,30.08,10.0,Calm,Calm,-,N/A,,Scattered Clouds,0,2008-01-29 00:01:00
7:21 PM,46.4,30.2,53,30.08,10.0,Calm,Calm,-,N/A,,Clear,0,2008-01-29 00:21:00
7:41 PM,44.6,30.2,57,30.10,10.0,Calm,Calm,-,N/A,,Clear,0,2008-01-29 00:41:00
8:01 PM,44.6,30.2,57,30.09,10.0,Calm,Calm,-,N/A,,Scattered Clouds,0,2008-01-29 01:01:00
8:21 PM,44.6,28.4,53,30.09,10.0,Calm,Calm,-,N/A,,Scattered Clouds,0,2008-01-29 01:21:00
8:44 PM,44.6,28.4,53,30.08,10.0,Calm,Calm,-,N/A,,Scattered Clouds,0,2008-01-29 01:44:00
9:22 PM,42.8,28.4,57,30.09,10.0,West,3.5,-,N/A,,Scattered Clouds,260,2008-01-29 02:22:00
10:23 PM,39.2,30.2,70,30.08,10.0,Calm,Calm,-,N/A,,Scattered Clouds,0,2008-01-29 03:23:00
11:25 PM,37.4,28.4,70,30.06,10.0,Calm,Calm,-,N/A,,Clear,0,2008-01-29 04:25:00
11:42 PM,37.4,28.4,70,30.06,10.0,Calm,Calm,-,N/A,,Clear,0,2008-01-29 04:42:00